This demonstration page uses our WeatherBlox Daily Observations layout. Learn more.

Left ArrowRight Arrow

34.02893, -84.19858

Hourly Observations for July 8, 2021

Temp ( °F °C ) Dew Point ( °F °C ) Humidity (%) Winds ( mph kmh ) Pressure ( in mb ) Visibility ( mi km ) Precip ( " mm )
12:53 am 00:53 Cloudy 70 21.1 69 20.6 97 97 ENE 5 7 29.93 1014 10 16 0.00 0.00
1:53 am 01:53 Cloudy 70 21.1 68 20 93 93 NNE 3 6 29.92 1013 10 16 0.00 0.00
2:44 am 02:44 Partly Cloudy 70 21.1 68 20 93 93 N 6 9 29.93 1014 10 16 0.00 0.00
2:53 am 02:53 Mostly Cloudy 70 21.1 68 20 93 93 N 6 9 29.91 1013 10 16 0.00 0.00
3:22 am 03:22 Cloudy 69 20.6 68 20 96 96 N 5 7 29.93 1014 10 16 0.00 0.00
3:53 am 03:53 Cloudy 69 20.6 68 20 96 96 N 3 6 29.91 1013 10 16 0.00 0.00
4:53 am 04:53 Cloudy 70 21.1 68 20 93 93 NNW 3 6 29.91 1013 10 16 0.00 0.00
5:53 am 05:53 Cloudy 70 21.1 68 20 93 93 NNW 6 9 29.92 1013 10 16 0.00 0.00
6:53 am 06:53 Cloudy 70 21.1 68 20 93 93 WSW 3 6 29.93 1014 10 16 0.00 0.00
7:53 am 07:53 Mostly Sunny 70 21.1 68 20 93 93 WNW 3 6 29.94 1014 10 16 0.00 0.00
8:53 am 08:53 Cloudy 73 22.8 69 20.6 87 87 WNW 3 6 29.95 1014 10 16 0.00 0.00
9:53 am 09:53 Cloudy 74 23.3 69 20.6 85 85 W 6 9 29.96 1015 10 16 0.00 0.00
10:53 am 10:53 Mostly Cloudy 78 25.6 69 20.6 74 74 VRB 6 9 29.97 1015 10 16 0.00 0.00
11:42 am 11:42 Mostly Cloudy 80 26.7 69 20.6 69 69 W 8 13 29.97 1015 10 16 0.00 0.00
11:50 am 11:50 Mostly Cloudy 81 27 70 21 70 70 WNW 8 13 29.98 1015 10 16 0.00 0.00
11:53 am 11:53 Partly Cloudy 82 27.8 69 20.6 65 65 NW 8 13 29.98 1015 10 16 0.00 0.00
12:53 pm 12:53 Mostly Cloudy 83 28.3 68 20 61 61 WNW 9 15 29.97 1015 10 16 0.00 0.00
1:53 pm 13:53 Mostly Cloudy with Nearby Thunderstorms 83 28.3 71 21.7 67 67 W 8 13 29.96 1015 10 16 0.00 0.00
2:11 pm 14:11 Mostly Cloudy 80 26.7 69 20.6 69 69 SSW 10 17 29.96 1015 10 16 0.00 0.00
2:36 pm 14:36 Cloudy with Heavy Rain 77 25 71 21.7 82 82 W 10 17 29.98 1015 2 3 0.09 2.29
2:47 pm 14:47 Cloudy with Light Rain 75 24 73 23 94 94 SSW 8 13 29.98 1015 3 5 0.11 2.79
2:53 pm 14:53 Cloudy 77 25 73 22.8 88 88 SW 7 11 29.98 1015 10 16 0.11 2.79
3:53 pm 15:53 Mostly Sunny 81 27.2 72 22.2 74 74 VRB 3 6 29.96 1015 10 16 0.00 0.00
4:53 pm 16:53 Mostly Cloudy 82 27.8 71 21.7 69 69 WSW 10 17 29.94 1014 10 16 0.00 0.00
5:53 pm 17:53 Partly Cloudy 83 28.3 71 21.7 67 67 W 6 9 29.93 1014 10 16 0.00 0.00
6:53 pm 18:53 Mostly Cloudy 82 27.8 71 21.7 69 69 WSW 6 9 29.94 1014 10 16 0.00 0.00
7:53 pm 19:53 Cloudy 78 25.6 74 23.3 87 87 Calm 29.96 1014 10 16 0.02 0.51
8:26 pm 20:26 Mostly Cloudy with Nearby Thunderstorms 78 25.6 74 23.3 87 87 Calm 29.95 1014 10 16 0.00 0.00
8:43 pm 20:43 Partly Cloudy 78 25.6 74 23.3 87 87 WNW 3 6 29.96 1015 10 16 0.00 0.00
8:53 pm 20:53 Mostly Clear 77 25 73 22.8 88 88 Calm 29.96 1015 10 16 0.00 0.00
9:53 pm 21:53 Partly Cloudy 76 24.4 74 23.3 94 94 S 3 6 30.01 1016 9 14 0.00 0.00
10:53 pm 22:53 Clear 74 23.3 73 22.8 97 97 Calm 30.02 1017 10 16 0.00 0.00
11:53 pm 23:53 Clear with Mist and Fog 73 22.8 72 22.2 96 96 Calm 30.02 1017 5 8 0.00 0.00

Powered by AerisWeather